Simultaneous Nadir Overpasses (SNOs) Predictions

Prediction of SNOs between METOP-B and TERRA Satellite Orbit:

Table of predicted SNOs for the next 14.0 days since TLE Epoch: 5/21/2022
Index Date (METOP-B) Time (METOP-B) Lat,Lon (METOP-B) SZA (METOP-B ) Date (TERRA) Time (TERRA) Lat,Lon (TERRA) SZA (TERRA ) Distance(km) Time Diff (sec)
1 05/22/2022 18:21:12 -81.18, 126.07 116.93 05/22/2022 18:21:15 -81.19, 126.21 116.91 2.59 3
2 05/22/2022 19:11:52 81.19, -66.26 63.11 05/22/2022 19:10:41 81.20, -66.08 63.10 3.05 71
3 05/25/2022 13:04:56 81.16, 24.42 62.46 05/25/2022 13:05:55 81.16, 24.58 62.51 2.83 59
4 05/25/2022 13:55:35 -81.18,-167.55 117.46 05/25/2022 13:55:21 -81.18,-167.50 117.46 0.99 14
5 05/28/2022 08:39:18 81.18, 91.44 62.06 05/28/2022 08:40:00 81.18, 91.37 62.07 1.34 42
6 05/28/2022 09:29:58 -81.19,-100.88 117.90 05/28/2022 09:29:27 -81.18,-101.05 117.94 3.22 31
7 05/31/2022 04:13:42 81.17, 157.62 61.60 05/31/2022 04:14:06 81.17, 157.57 61.60 1.06 24
8 05/31/2022 05:04:21 -81.20, -34.27 118.31 05/31/2022 05:03:32 -81.19, -34.45 118.36 3.19 49
9 06/02/2022 23:48:03 81.19,-135.51 61.28 06/02/2022 23:48:09 81.19,-135.70 61.25 3.29 6



Historial Predications of SNOs between METOP-B and TERRA
